Location: *
(55.8970°N, 38.8208°E)
Time: 23:47:27
(UTC+00:00)

Daily predictions for brighter satellites

Satellite Brightness Start Highest point End
(mag) Time Altitude Azimuth Time Altitude Azimuth Time Altitude Azimuth
Cosmos 2242 Rocket 4.0 15:24:35 10° N 15:28:55 43° ENE 15:33:14 10° SE
NOSS 3-1 (C) 3.9 15:24:52 10° S 15:29:28 33° ESE 15:34:51 10° ENE
Cosmos 1992 Rocket 4.0 15:25:29 10° NNW 15:30:45 81° ENE 15:36:00 10° SSE
USA 267 3.4 15:24:42 10° E 15:31:18 83° N 15:37:53 10° W
SL-08 R/B 3.6 15:27:04 10° NNE 15:31:55 51° E 15:36:43 10° S
NOAA 6 4.4 15:26:59 10° S 15:32:07 71° WSW 15:37:19 10° NNW
USA 186 3.7 15:31:01 10° E 15:32:23 13° ENE 15:33:47 10° NNE
SeaSat 1 3.4 15:28:56 10° NNE 15:33:43 51° NW 15:38:28 10° WSW
Cosmos 1933 Rocket 3.8 15:29:57 10° SSE 15:34:08 47° E 15:38:19 10° NNE
Okean-O 4.4 15:32:35 10° E 15:35:05 15° NE 15:37:36 10° NNE
Cosmos 1726 1.9 15:31:52 10° SSW 15:35:15 86° W 15:38:41 10° NNE
PAYLOAD B 4.4 15:30:29 10° SE 15:35:51 53° ENE 15:41:13 10° N
Okean 2 3.3 15:32:57 10° N 15:36:59 66° ENE 15:40:59 10° SSE
Cosmos 1766 4.1 15:36:05 10° SSE 15:39:16 27° E 15:42:29 10° NNE
Cosmos 2181 Rocket 4.0 15:34:17 10° S 15:40:37 71° E 15:46:54 10° NNE
SL-14 R/B 3.5 15:38:37 10° NNW 15:42:33 74° W 15:46:24 10° S
Cosmos 2360 Rocket 2.8 15:37:35 10° SW 15:43:12 63° NW 15:48:53 10° NNE
NOSS 7 (H) 4.2 15:42:27 10° SW 15:46:05 74° SE 15:49:04 10° NE
ISS -0.7 15:46:36 10° SW 15:47:26 11° SW 15:48:18 10° SSW
Cosmos 1733 3.3 15:43:53 10° SSW 15:47:35 79° WNW 15:51:20 10° N
Cosmos 1821 Rocket 4.0 15:44:18 10° N 15:50:38 80° ENE 15:57:00 10° SSE
Cosmos 2369 Rocket 3.2 15:48:07 10° NNW 15:53:05 31° NE 15:57:36 12° E
COSMOS 2455 3.8 15:48:32 10° NW 15:54:20 49° WSW 16:00:04 10° SSE
Cosmos 389 Rocket 3.6 15:52:40 10° NNE 15:54:58 19° ENE 15:56:29 14° E
USA 238 DEB 4.5 15:49:06 10° W 15:55:35 47° N 16:02:38 10° ENE
USA 238 4.5 15:49:11 10° W 15:55:40 47° N 16:02:44 10° ENE
Cosmos 2237 Rocket 2.9 15:51:42 10° SSE 15:56:36 30° ESE 16:01:30 10° NE
Cosmos 1633 Rocket 4.3 15:53:06 10° SW 15:57:17 46° WNW 16:01:31 10° N
JB-3 4.3 15:53:36 10° NNE 15:57:25 57° E 16:01:16 10° S
YAOGAN 1 2.6 15:54:58 10° SSE 15:59:17 88° WSW 16:03:38 10° NNW
Lacrosse 5 1.9 15:54:28 10° WNW 15:59:37 86° N 16:04:06 14° ESE
USA 81 4.1 15:55:39 10° S 16:00:55 89° W 16:06:15 10° N
CZ-4C R/B 3.3 15:55:28 10° WNW 16:01:02 44° N 16:07:58 10° ENE
CENTAUR R/B 3.5 15:54:10 10° WNW 16:01:21 54° NNE 16:09:02 13° E
ATLAS 3B R/B 2.9 15:57:16 10° SSW 16:04:06 58° SE 16:11:26 10° NE
NOSS 0 Rocket 4.2 15:58:16 10° S 16:04:06 45° ESE 16:10:01 10° NE
DELTA 2 DEB (DPAF) 4.3 16:01:01 10° NNE 16:05:14 47° E 16:09:25 10° S
Cosmos 1943 Rocket 2.2 16:00:11 10° NNW 16:05:54 78° NE 16:11:34 10° SE
SL-16 R/B 3.9 16:03:56 10° SE 16:07:58 13° E 16:09:23 10° ENE
CZ-4 R/B 1.3 16:02:58 10° SSE 16:06:43 57° ENE 16:10:28 10° N
Cosmos 2322 3.7 16:04:01 10° SSW 16:09:45 87° ESE 16:15:32 10° NE
COSMO-SKYMED 1 2.9 16:06:00 10° NNE 16:10:21 71° WNW 16:14:41 10° SSW
Cosmos 1805 3.6 16:07:10 10° SSW 16:10:54 65° WNW 16:14:41 10° N
ADEOS Rocket 3.8 16:05:38 10° SE 16:12:39 44° ENE 16:19:08 10° N
Cosmos 2333 Rocket 3.0 16:07:57 10° SW 16:13:31 54° NW 16:19:08 10° NNE
Cosmos 1869 Rocket 3.5 16:10:50 10° S 16:15:08 65° E 16:19:27 10° NNE
Cosmos 2297 4.1 16:11:40 10° NNW 16:17:16 49° NE 16:21:33 17° ESE
COSMOS 2428 2.7 16:12:16 10° SSW 16:17:56 82° ESE 16:23:40 10° NE
Nadezhda 3 Rocket 4.0 16:13:58 10° S 16:20:15 65° E 16:26:32 10° NNE
Cosmos 2221 Rocket 4.1 16:16:17 10° N 16:20:36 41° ENE 16:24:01 15° SE
Cosmos 1470 3.3 16:17:40 10° SSE 16:21:11 35° E 16:24:44 10° NNE
Akebono 3.7 16:19:21 10° SSW 16:21:25 54° ESE 16:22:55 16° NE
Landsat 7 3.7 16:17:07 10° SSE 16:21:50 79° ENE 16:26:34 10° NNW
SJ-6B 2.8 16:21:20 10° SSE 16:25:18 71° ENE 16:29:17 10° N
USA 229 DEB 4.4 16:22:09 10° S 16:27:12 26° ESE 16:32:37 10° ENE
USA 229 4.4 16:22:15 10° SSE 16:27:17 26° ESE 16:32:42 10° ENE
NOSS 3-2 (A) 4.2 16:20:50 10° WNW 16:27:18 54° NNE 16:33:09 18° E
Cosmos 2219 Rocket 2.8 16:22:46 10° SW 16:28:18 59° NW 16:33:54 10° NNE
Okean O Rocket 1.6 16:24:58 10° SSE 16:29:21 63° ENE 16:33:46 10° N
Cosmos 1980 Rocket 4.4 16:26:16 10° NW 16:30:16 19° N 16:34:16 10° NNE
CSL-04 Debris 4.2 16:25:19 10° SE 16:30:39 61° ENE 16:36:00 10° NNW
NOSS 2-3 (C) 3.9 16:27:57 10° WSW 16:31:54 66° NNW 16:36:47 10° NE
SME Rocket 3.5 16:26:03 10° SSE 16:32:19 78° ENE 16:36:41 10° NNW
NOSS 2-2 (E) 3.0 16:31:02 10° WSW 16:34:14 73° NW 16:37:12 14° NE
Meteor 1-24 Rocket 3.6 16:30:38 10° N 16:36:00 60° ENE 16:40:34 14° SSE
NOSS 2-3 (D) 3.9 16:33:17 10° WSW 16:37:12 64° NNW 16:42:02 10° NE
Meteor 2-5 Rocket 3.7 16:34:24 10° NNW 16:40:07 68° ENE 16:45:22 12° SSE
Cosmos 407 Rocket 4.4 16:36:14 10° SSE 16:40:31 26° E 16:44:51 10° NE
GEOS 3 Rocket 3.7 16:35:56 10° NE 16:41:22 86° NW 16:46:43 10° SW
Cosmos 405 2.3 16:39:54 10° NNW 16:42:28 70° WSW 16:43:37 28° S
NOSS 3-1 (A) 3.4 16:37:58 10° SSW 16:42:59 50° SE 16:49:03 10° NE
Resurs 1-3 3.5 16:40:21 10° SSE 16:44:43 90° SW 16:49:07 10° NNW
SL-16 R/B 4.2 16:41:08 10° W 16:45:47 25° NNW 16:50:27 10° NNE
CSL-04 Rocket 3.6 16:42:37 13° SSE 16:47:16 71° ENE 16:52:38 10° NNW
PSLV R/B 4.4 16:48:46 10° S 16:52:37 58° WSW 16:56:32 10° NNW
SPOT 1/Viking Rocket 3.4 16:49:41 15° SSE 16:53:58 77° ENE 16:59:08 10° NNW
Cosmos 468 Rocket 4.4 16:50:45 10° NNW 16:55:46 45° NE 16:57:42 31° ESE
Cosmos 1733 Rocket 2.9 16:51:28 10° S 16:55:47 63° E 17:00:04 10° NNE
NOSS 2-2 (D) 3.1 16:52:44 10° WSW 16:55:54 65° NW 16:57:53 23° NE
IRS-1C Rocket 4.4 16:54:30 29° ESE 16:56:48 47° ENE 17:01:51 10° N
Resurs 01 Rocket 1.7 16:54:54 30° SE 16:56:55 59° ENE 17:01:19 10° N
Meteor 1-15 Rocket 4.2 16:51:35 10° S 16:57:09 59° E 17:02:40 10° NNE
NOSS 2-2 (C) 3.2 16:57:04 10° WSW 17:00:14 62° NNW 17:02:03 25° NE
Cosmos 1269 Rocket 4.2 16:56:26 10° SSW 17:01:44 78° WNW 17:07:04 10° NNE
Cosmos 1980 3.6 16:56:27 10° SSW 17:02:05 79° ESE 17:07:46 10° NE
Cosmos 1763 Rocket 3.5 16:57:52 10° NNW 17:02:57 61° NE 17:04:58 35° ESE
Cosmos 1908 3.3 17:03:36 47° E 17:03:36 47° E 17:07:02 10° NNE
USA 186 1.8 17:02:49 40° S 17:03:44 69° WSW 17:06:47 10° NNW
Cosmos 2322 Rocket 4.2 16:59:48 10° W 17:04:25 25° NNW 17:09:04 10° NNE
Cosmos 540 Rocket 3.8 17:02:01 10° NNW 17:07:00 49° NE 17:08:31 37° E
CZ-4B R/B 3.9 17:02:15 10° S 17:07:25 52° W 17:12:41 10° NNW
NOSS 3-2 (C) 4.3 17:01:05 10° WNW 17:07:32 53° NNE 17:12:01 25° E
Cosmos 972 Rocket 3.9 17:02:17 10° NNW 17:07:49 78° ENE 17:10:11 33° SE
NOSS 2-3 (E) 4.5 17:04:13 10° W 17:08:09 47° NNW 17:12:16 14° NE
Cosmos 2278 Rocket 4.2 17:03:52 10° NW 17:08:28 26° WSW 17:13:02 10° SSW
Cosmos 1867 3.5 17:05:13 10° SSW 17:10:36 65° SE 17:15:27 13° NE
Okean-O 2.5 17:09:14 39° SE 17:10:48 71° ENE 17:15:13 10° NNW
CARTOSAT-1 3.5 17:11:30 47° SE 17:12:30 62° ENE 17:16:46 10° N
Cosmos 1378 Rocket 3.6 17:08:12 10° NNW 17:12:32 75° W 17:15:12 23° S
Cosmos 1605 Rocket 3.9 17:06:30 10° NNW 17:12:38 89° E 17:17:51 15° S
Cosmos 1703 3.1 17:09:24 10° N 17:13:14 60° ENE 17:13:25 59° E
Cosmos 1140 Rocket 3.5 17:08:26 10° S 17:13:26 53° ESE 17:18:29 10° NE
Cosmos 1025 Rocket 3.5 17:09:18 10° N 17:13:30 42° ENE 17:13:38 42° ENE
Cosmos 1023 Rocket 4.5 17:08:50 10° S 17:13:51 56° ESE 17:18:57 10° NE
Cosmos 1934 Rocket 4.5 17:07:52 10° NNW 17:14:06 62° W 17:20:14 10° S
USA 267 3.2 17:10:53 31° ESE 17:14:22 89° SSW 17:20:58 10° WNW
Cosmos 2263 4.3 17:11:34 10° NNW 17:17:15 62° NE 17:19:11 40° ESE
NOSS 3-1 (C) 3.4 17:14:20 10° WSW 17:19:43 76° NNW 17:26:24 10° NE
CZ-4C R/B 3.1 17:16:53 10° NNE 17:20:18 75° WNW 17:23:46 10° SSW
Cosmos 1975 Rocket 3.8 17:20:47 10° N 17:24:22 37° NE 17:24:22 37° NE
IRS-1A Rocket 4.3 17:24:56 44° ESE 17:26:23 57° ENE 17:31:51 10° NNW
Cosmos 389 Rocket 3.6 17:25:23 10° NNW 17:28:11 35° W 17:28:45 31° WSW
Cosmos 2360 Rocket 4.3 17:23:43 10° W 17:28:19 24° NNW 17:32:56 10° NNE
Spot 2 Rocket 4.3 17:28:35 33° ENE 17:28:44 33° ENE 17:33:13 10° N
IRIDIUM 104 4.2 17:25:58 10° N 17:31:14 80° E 17:33:08 40° SSE
Cosmos 1908 Rocket 4.1 17:32:33 43° NE 17:32:33 43° NE 17:35:53 10° NNE
Ariane Rocket 3.5 17:32:20 42° ENE 17:32:38 42° ENE 17:37:25 10° N
Cosmos 2251 Rocket 3.4 17:27:56 10° SSW 17:33:09 64° ESE 17:38:22 10° NNE
Cosmos 1674 Rocket 4.2 17:29:03 10° NNW 17:33:24 54° W 17:35:49 24° SSW
SPOT 5 3.2 17:34:19 43° NE 17:34:19 43° NE 17:38:09 10° N
BREEZE M DEB (TANK) 4.2 17:31:45 10° SW 17:32:28 17° SSW 17:32:28 17° SSW
Cosmos 1656 Rocket 3.6 17:30:12 10° NW 17:35:40 82° WSW 17:37:20 46° SSE
Cosmos 2369 Rocket 2.1 17:32:08 10° NW 17:37:45 85° WSW 17:39:23 48° SSE
Terra 2.7 17:40:22 34° NE 17:40:22 34° NE 17:44:10 10° N
Cosmos 2237 Rocket 2.5 17:34:36 10° SW 17:40:17 69° NW 17:46:01 10° NNE
IRIDIUM 114 4.2 17:35:06 10° N 17:40:23 89° W 17:42:15 41° S
CZ-4 R/B 3.9 17:39:04 10° SW 17:41:49 19° W 17:44:35 10° NW
Lacrosse 5 2.4 17:37:32 10° WNW 17:42:27 47° SW 17:43:18 43° S
SPOT 3 Rocket 4.0 17:44:47 43° ENE 17:44:47 43° ENE 17:49:39 10° N
Cosmos 1408 3.9 17:43:39 10° N 17:45:34 31° N 17:45:34 31° N
USA 238 DEB 4.2 17:40:52 10° WNW 17:47:44 56° NNE 17:50:41 36° E
USA 238 4.2 17:40:58 10° WNW 17:47:49 56° NNE 17:50:47 36° E
Cosmos 1943 Rocket 4.1 17:44:32 10° NW 17:49:08 26° WSW 17:53:41 10° SSW
IRIDIUM 103 4.4 17:44:19 10° N 17:49:33 77° W 17:51:25 41° S
SL-16 R/B 2.1 17:44:05 10° SSW 17:49:39 62° ESE 17:55:17 10° NE
Cosmos 1400 Rocket 3.0 17:46:01 10° NNW 17:49:41 71° NW 17:49:41 71° NW
Cosmos 1727 Rocket 3.9 17:48:58 49° SSE 17:50:31 65° E 17:56:45 10° NNE
CZ-4C R/B 2.9 17:44:11 10° NW 17:50:33 64° NNE 17:53:05 42° E
Cosmos 841 Rocket 3.6 17:45:46 10° NNW 17:50:52 57° NE 17:50:59 57° ENE
CENTAUR R/B 3.1 17:45:01 10° NW 17:52:51 89° SW 17:56:11 44° SE
Meteor 1-22 Rocket 4.4 17:48:11 10° SSW 17:53:27 66° WNW 17:58:51 10° N
Cosmos 1758 4.2 17:54:49 41° N 17:54:49 41° N 17:57:30 10° N
ATLAS 3B R/B 3.2 17:47:48 10° WSW 17:54:56 64° NNW 18:02:34 10° NE
ERS-1 Rocket 3.2 17:56:25 53° NE 17:56:25 53° NE 18:01:02 10° N
ADEOS Rocket 3.9 17:51:46 16° S 17:57:59 61° W 18:04:58 10° NNW
Cosmos 2333 Rocket 4.4 17:54:36 10° WNW 17:59:03 23° NNW 18:03:32 10° NNE
COSMOS 2428 4.4 17:57:43 10° W 18:02:49 33° NW 18:07:56 10° NNE
Okean O Rocket 3.9 18:02:35 10° SW 18:06:03 22° W 18:09:33 10° NW
Cosmos 2173 Rocket 3.8 18:01:44 10° NNW 18:07:53 87° E 18:08:53 65° SSE
Cosmos 1356 Rocket 4.2 18:09:00 10° NNW 18:12:38 51° WNW 18:12:38 51° WNW
Cosmos 2219 Rocket 4.3 18:08:58 10° WNW 18:13:25 23° NNW 18:17:54 10° NNE
Cosmos 1697 Rocket 4.2 18:09:34 10° NNW 18:14:07 24° NNE 18:15:18 22° NE
Cosmos 1980 Rocket 4.1 18:12:15 10° NNW 18:16:26 20° NNE 18:18:35 17° NE
USA 229 DEB 3.4 18:10:53 10° SW 18:17:13 83° SE 18:24:17 10° NE
USA 229 3.4 18:10:57 10° SW 18:17:18 83° SE 18:24:22 10° NE
Cosmos 1825 4.4 18:14:23 10° N 18:15:32 19° N 18:15:32 19° N
NOSS 3-2 (A) 3.9 18:11:42 10° NW 18:18:45 82° SW 18:20:31 58° SE
Cosmos 2233 Rocket 4.3 18:13:00 10° N 18:18:58 52° ENE 18:18:58 52° ENE
H-2A R/B 4.3 18:23:00 23° NNE 18:23:00 23° NNE 18:24:52 10° N
Cosmos 407 Rocket 3.7 18:16:48 10° SW 18:22:03 70° WNW 18:27:25 10° NNE
Meteor 1-16 Rocket 4.2 18:27:10 72° NNE 18:27:10 72° NNE 18:32:21 10° NNE
Exosat Rocket 3.7 18:21:31 10° NNW 18:26:46 67° NNE 18:26:46 67° NNE
Cosmos 2100 Rocket 4.1 18:22:25 10° NNW 18:28:32 69° W 18:29:38 57° SSW
Cosmos 1459 Rocket 4.1 18:24:08 10° NNW 18:30:31 73° W 18:31:34 61° SSW
Resurs 01 Rocket 3.6 18:32:25 20° WSW 18:33:44 23° W 18:37:20 10° NW
NOSS 3-1 (A) 3.8 18:28:19 10° WSW 18:33:46 61° NNW 18:39:25 15° NE
Cosmos 2123 Rocket 4.3 18:36:30 52° NE 18:36:30 52° NE 18:41:22 10° NNE
Cosmos 909 Rocket 4.3 18:30:52 10° NW 18:37:36 74° NE 18:38:33 66° E
Cosmos 1000 Rocket 4.4 18:38:08 86° SSW 18:38:18 90° NW 18:44:41 10° NNE
Meteor 2-10 Rocket 4.0 18:39:25 61° WSW 18:40:11 68° WNW 18:46:02 10° NNE
Cosmos 1864 Rocket 4.4 18:35:06 10° NNW 18:41:25 84° W 18:41:33 83° SW
Cosmos 1867 4.5 18:49:12 10° W 18:54:28 47° NNW 18:56:07 36° NNE
Cosmos 1802 Rocket 4.2 18:49:49 10° NNW 18:56:05 62° W 18:56:25 61° WSW
USA 267 3.6 18:58:14 52° SW 18:58:14 52° SW 19:04:10 10° WNW
NOSS 3-2 (C) 3.8 18:52:01 10° NW 18:59:05 84° SW 18:59:26 81° S
Cosmos 2061 Rocket 4.1 19:01:25 10° NNW 19:07:03 68° WNW 19:07:03 68° WNW
NOSS 3-1 (C) 4.4 19:05:44 10° W 19:11:22 45° N 19:14:35 28° NE
Cosmos 2016 Rocket 4.4 19:05:12 10° NNW 19:11:27 58° W 19:11:27 58° W
Ariane Rocket 4.2 19:12:30 37° WNW 19:12:30 37° WNW 19:16:27 10° NNW
Terra 3.4 19:19:07 32° NW 19:19:07 32° NW 19:22:00 10° NNW
Cosmos 2369 Rocket 4.1 19:17:05 10° NW 19:21:02 20° W 19:21:10 20° WSW
Lacrosse 5 4.4 19:21:40 10° W 19:22:30 12° W 19:22:30 12° W
Cosmos 2237 Rocket 4.2 19:20:39 10° W 19:25:22 26° NNW 19:30:06 10° NNE
SL-16 R/B 3.4 19:28:47 10° WSW 19:34:06 39° NW 19:39:28 10° NNE
USA 238 DEB 4.0 19:31:59 10° NW 19:38:06 65° W 19:38:06 65° W
USA 238 4.0 19:32:05 10° NW 19:38:12 65° W 19:38:12 65° W
CZ-4C R/B 3.2 19:32:35 10° NW 19:38:13 55° W 19:38:13 55° W
CENTAUR R/B 4.0 19:35:54 10° NW 19:43:14 38° WSW 19:43:21 38° WSW
ATLAS 3B R/B 3.7 19:39:45 10° WNW 19:46:53 47° N 19:51:07 25° ENE
Cosmos 1697 Rocket 4.0 19:53:35 10° NNW 19:57:00 36° NNW 19:57:00 36° NNW
Cosmos 1980 Rocket 3.6 19:56:32 10° NNW 20:00:19 34° N 20:00:19 34° N
USA 229 DEB 4.3 20:02:18 10° W 20:08:43 51° NNW 20:15:50 10° ENE
USA 229 4.3 20:02:23 10° W 20:08:48 52° NNW 20:15:55 10° ENE
SL-16 R/B 4.0 20:13:19 10° NNW 20:17:47 26° NNE 20:17:47 26° NNE
NOSS 3-1 (A) 4.5 20:19:55 10° WNW 20:25:43 45° N 20:32:51 10° ENE
Cosmos 2322 Rocket 4.1 20:31:56 10° NNW 20:36:25 25° NNE 20:36:25 25° NNE
Cosmos 2360 Rocket 4.0 20:55:37 10° NNW 21:00:08 26° NNE 21:00:08 26° NNE
NOSS 3-1 (C) 4.5 20:57:05 10° WNW 21:01:55 46° NNW 21:01:55 46° NNW
Cosmos 2082 Rocket 4.5 21:27:19 17° ENE 21:27:19 17° ENE 21:28:49 10° NE
Cosmos 2333 Rocket 3.9 21:26:33 10° NNW 21:30:55 29° NNE 21:30:55 29° NNE
ATLAS 3B R/B 3.3 21:31:22 10° NW 21:38:16 60° N 21:38:16 60° N
Cosmos 2219 Rocket 4.0 21:40:34 10° NNW 21:45:21 27° NNE 21:45:51 27° NE
Cosmos 1980 Rocket 4.4 21:40:38 10° NW 21:42:04 18° NW 21:42:04 18° NW
SL-16 R/B 4.1 21:57:27 10° NNW 21:59:36 24° NNW 21:59:36 24° NNW
Cosmos 2322 Rocket 4.0 22:16:00 10° NNW 22:18:11 24° NNW 22:18:11 24° NNW
Resurs 1-4 Rocket 4.1 22:18:38 10° NE 22:21:30 23° ENE 22:21:30 23° ENE
SJ 16-02 4.1 22:27:38 15° N 22:27:38 15° N 22:28:42 10° N
SL-16 R/B 3.2 22:39:48 50° NE 22:39:48 50° NE 22:45:33 10° NNW
Cosmos 2360 Rocket 4.0 22:39:38 10° NNW 22:41:50 24° NNW 22:41:50 24° NNW
ADEOS II 3.9 22:41:15 10° NE 22:44:49 24° ENE 22:44:49 24° ENE
CZ-2D R/B 3.5 22:45:10 10° NNE 22:48:57 34° ENE 22:48:57 34° ENE
CZ-2C R/B 3.9 22:56:07 35° ENE 22:56:18 35° ENE 23:01:08 10° N
Cosmos 2237 Rocket 4.2 22:52:52 10° NNW 22:57:34 25° NNE 23:02:13 10° E
IDEFIX/ARIANE 42P 3.9 22:54:37 10° NNE 22:58:21 36° ENE 22:58:21 36° ENE
COSMOS 2406 4.0 23:02:47 48° NNE 23:02:47 48° NNE 23:06:57 10° NNE
Cosmos 1833 Rocket 3.9 23:06:49 34° NNW 23:06:49 34° NNW 23:11:03 10° NNE
Cosmos 2082 Rocket 3.0 23:09:09 48° NNE 23:09:09 48° NNE 23:13:21 10° NNE
Cosmos 2322 4.5 23:06:57 10° NNW 23:12:31 49° NE 23:13:35 44° ENE
Cosmos 2333 Rocket 4.0 23:10:50 10° NW 23:12:52 23° NW 23:12:52 23° NW
Lacrosse 4 Rocket 3.6 23:20:57 25° NNE 23:20:57 25° NNE 23:22:56 10° NE
COSMOS 2428 3.6 23:15:25 10° NNW 23:20:55 47° NE 23:26:25 10° ESE
ATLAS 5 CENTAUR R/B 3.5 23:24:41 26° NNE 23:24:41 26° NNE 23:27:03 10° NE
Cosmos 1092 Rocket 4.2 23:27:10 63° NNW 23:27:10 63° NNW 23:32:37 10° N
Cosmos 2285 Rocket 4.1 23:20:20 10° NNW 23:26:07 72° NNE 23:26:07 72° NNE
USA 215 3.2 23:22:49 10° ESE 23:28:49 76° ESE 23:28:49 76° ESE
ATLAS 3B R/B 4.2 23:22:21 10° NW 23:40:03 - SSE 23:25:25 27° WNW
Cosmos 2219 Rocket 3.5 23:24:31 10° NNW 23:27:27 32° NNW 23:27:27 32° NNW
Cosmos 44 4.2 23:33:12 52° NE 23:33:12 52° NE 23:37:17 10° NE
ATLAS 2AS CENTAUR R/B 2.8 23:34:40 68° SSE 23:34:57 69° SE 23:42:04 10° NE
Cosmos 1937 Rocket 4.1 23:39:09 55° NE 23:39:09 55° NE 23:43:15 10° NNE
Cosmos 1898 Rocket 4.1 23:40:14 56° NNE 23:40:14 56° NNE 23:44:27 10° NNE
ALOS 4.0 23:35:14 10° NE 23:39:10 27° E 23:39:35 26° E
Meteor 1-5 Rocket 4.5 23:35:18 10° NNW 23:40:15 64° NNE 23:40:15 64° NNE
